AAY9083 CYWG-KPIE

Flight info

Callsign AAY9083
Flight time N/A
Altitude 39000
Route ELETO DCT GROLE DCT PEKTE DCT QUANE DCT ELIOE DCT HITMN Q19 TOJXE DCT HONID BANGZ2
Aircraft B38M/M-SDE1FGHILORVWXY/HB1

Departure

Time 2026-05-06 20:50
Airport Winnipeg / James Armstrong Richardson International Airport (CYWG)

Arrival

Time N/A
Airport St. Petersburg Clearwater International Airport (KPIE)
Time Latitude Longitude Altitude Speed Heading
2026-05-06 20:32 49.89166 -97.23132 789 ft 0 kts
2026-05-06 20:48 49.89220 -97.23115 789 ft 13 kts 12°
2026-05-06 20:48 49.89284 -97.23115 789 ft 15 kts 339°
2026-05-06 20:48 49.89372 -97.23221 789 ft 18 kts 319°
2026-05-06 20:48 49.89468 -97.23350 789 ft 16 kts 327°
2026-05-06 20:49 49.89508 -97.23292 788 ft 10 kts 90°
2026-05-06 20:49 49.89496 -97.23124 788 ft 21 kts 97°
2026-05-06 20:49 49.89477 -97.22885 787 ft 18 kts 95°
2026-05-06 20:49 49.89536 -97.22816 787 ft 10 kts 329°
2026-05-06 20:50 49.89657 -97.22978 786 ft 55 kts 318°
2026-05-06 20:50 49.90142 -97.23642 790 ft 130 kts 319°
2026-05-06 20:50 49.90961 -97.24751 937 ft 173 kts 320°
2026-05-06 20:50 49.91937 -97.26000 1562 ft 187 kts 317°
2026-05-06 20:51 49.92947 -97.27317 2406 ft 191 kts 317°
2026-05-06 20:51 49.93982 -97.28726 3068 ft 209 kts 313°
2026-05-06 20:51 49.94837 -97.30635 3577 ft 224 kts 283°
2026-05-06 20:51 49.94902 -97.33048 4210 ft 234 kts 252°
2026-05-06 20:52 49.94317 -97.35491 4923 ft 250 kts 243°
2026-05-06 20:52 49.93597 -97.38035 5735 ft 259 kts 241°
2026-05-06 20:52 49.92533 -97.40229 6757 ft 255 kts 216°
2026-05-06 20:52 49.90940 -97.41430 7667 ft 258 kts 195°
2026-05-06 20:53 49.89193 -97.41986 8561 ft 262 kts 182°
2026-05-06 20:53 49.87417 -97.41359 9507 ft 267 kts 156°
2026-05-06 20:53 49.85872 -97.39673 10345 ft 279 kts 137°
2026-05-06 20:53 49.84630 -97.37215 10877 ft 301 kts 129°
2026-05-06 20:54 49.83342 -97.34527 11349 ft 319 kts 130°
2026-05-06 20:54 49.81978 -97.31723 11963 ft 332 kts 130°
2026-05-06 20:54 49.80581 -97.28859 12877 ft 334 kts 130°
2026-05-06 20:54 49.79169 -97.25968 13709 ft 339 kts 130°
2026-05-06 20:55 49.77751 -97.23070 14575 ft 343 kts 130°
2026-05-06 20:55 49.76298 -97.20101 15441 ft 348 kts 130°
2026-05-06 20:55 49.74828 -97.17100 16273 ft 352 kts 130°
2026-05-06 20:55 49.73334 -97.14055 17072 ft 357 kts 130°
2026-05-06 20:56 49.71821 -97.10975 17833 ft 361 kts 130°
2026-05-06 20:56 49.70290 -97.07861 18577 ft 366 kts 130°
2026-05-06 20:56 49.68742 -97.04713 19300 ft 370 kts 130°
2026-05-06 20:56 49.67192 -97.01566 19979 ft 374 kts 130°
2026-05-06 20:57 49.65610 -96.98356 20651 ft 378 kts 130°
2026-05-06 20:57 49.63961 -96.95168 21298 ft 380 kts 137°
2026-05-06 20:57 49.61856 -96.92724 21930 ft 380 kts 150°
2026-05-06 20:57 49.59596 -96.90557 22506 ft 385 kts 150°
2026-05-06 20:58 49.57308 -96.88376 23119 ft 388 kts 150°
2026-05-06 20:58 49.54987 -96.86193 23703 ft 392 kts 150°
2026-05-06 20:58 49.52676 -96.84035 24258 ft 395 kts 150°
2026-05-06 20:58 49.50309 -96.81835 24808 ft 399 kts 150°
2026-05-06 20:59 49.47921 -96.79619 25336 ft 402 kts 150°
2026-05-06 20:59 49.45507 -96.77383 25854 ft 405 kts 150°
2026-05-06 20:59 49.43079 -96.75135 26352 ft 409 kts 150°
2026-05-06 20:59 49.40633 -96.72875 26831 ft 412 kts 150°
2026-05-06 21:00 49.38169 -96.70600 27306 ft 415 kts 150°
2026-05-06 21:00 49.35683 -96.68308 27759 ft 418 kts 150°
2026-05-06 21:00 49.33202 -96.66023 28199 ft 421 kts 150°
2026-05-06 21:00 49.30676 -96.63700 28629 ft 424 kts 150°
2026-05-06 21:01 49.28134 -96.61365 29049 ft 427 kts 150°
2026-05-06 21:01 49.25577 -96.59018 29469 ft 430 kts 150°
2026-05-06 21:01 49.23031 -96.56685 29860 ft 432 kts 150°
2026-05-06 21:01 49.20437 -96.54311 30247 ft 435 kts 150°
2026-05-06 21:02 49.17822 -96.51920 30632 ft 438 kts 150°
2026-05-06 21:02 49.15196 -96.49522 31006 ft 440 kts 150°
2026-05-06 21:02 49.12553 -96.47112 31373 ft 443 kts 150°
2026-05-06 21:02 49.09897 -96.44692 31731 ft 446 kts 150°
2026-05-06 21:03 49.07237 -96.42226 32080 ft 449 kts 147°
2026-05-06 21:03 49.04695 -96.39426 32449 ft 451 kts 146°
2026-05-06 21:03 49.02175 -96.36674 32907 ft 450 kts 146°
2026-05-06 21:03 48.99619 -96.33917 33375 ft 449 kts 146°
2026-05-06 21:04 48.97057 -96.31169 33842 ft 448 kts 146°
2026-05-06 21:04 48.94503 -96.28439 34296 ft 447 kts 146°
2026-05-06 21:04 48.91988 -96.25754 34745 ft 446 kts 147°
2026-05-06 21:04 48.89447 -96.23045 35174 ft 445 kts 147°
2026-05-06 21:05 48.86906 -96.20341 35591 ft 444 kts 147°
2026-05-06 21:05 48.84373 -96.17647 35998 ft 443 kts 147°
2026-05-06 21:05 48.81843 -96.14961 36372 ft 443 kts 147°
2026-05-06 21:05 48.79343 -96.12309 36709 ft 443 kts 147°
2026-05-06 21:06 48.76817 -96.09633 37042 ft 443 kts 147°
2026-05-06 21:06 48.74285 -96.06955 37349 ft 443 kts 147°
2026-05-06 21:06 48.71756 -96.04283 37649 ft 443 kts 147°
2026-05-06 21:06 48.69226 -96.01612 37941 ft 443 kts 147°
2026-05-06 21:07 48.66695 -95.98945 38214 ft 443 kts 147°
2026-05-06 21:07 48.64164 -95.96281 38484 ft 443 kts 147°
2026-05-06 21:07 48.61668 -95.93657 38747 ft 443 kts 147°
2026-05-06 21:07 48.59133 -95.90995 38942 ft 444 kts 147°
2026-05-06 21:08 48.56593 -95.88331 38953 ft 444 kts 147°
2026-05-06 21:08 48.51553 -95.83055 38948 ft 438 kts 147°
2026-05-06 21:09 48.46555 -95.77836 38942 ft 438 kts 147°
2026-05-06 21:09 48.41528 -95.72600 38947 ft 438 kts 147°
2026-05-06 21:10 48.36500 -95.67375 38942 ft 438 kts 147°
2026-05-06 21:10 48.31502 -95.62193 38942 ft 438 kts 147°
2026-05-06 21:11 48.26473 -95.56993 38942 ft 438 kts 147°
2026-05-06 21:11 48.21440 -95.51801 38942 ft 438 kts 147°
2026-05-06 21:12 48.16401 -95.46616 38941 ft 438 kts 147°
2026-05-06 21:12 48.11388 -95.41469 38944 ft 438 kts 147°
2026-05-06 21:13 48.06347 -95.36307 38945 ft 438 kts 147°
2026-05-06 21:13 48.01321 -95.31172 38946 ft 438 kts 147°
2026-05-06 21:14 47.96270 -95.26024 38942 ft 438 kts 147°
2026-05-06 21:14 47.91258 -95.20928 38945 ft 438 kts 147°
2026-05-06 21:15 47.86203 -95.15800 38943 ft 438 kts 147°
2026-05-06 21:15 47.81148 -95.10685 38945 ft 438 kts 147°
2026-05-06 21:16 47.76119 -95.05609 38942 ft 438 kts 147°
2026-05-06 21:16 47.71059 -95.00513 38941 ft 438 kts 147°
2026-05-06 21:17 47.66000 -94.95431 38943 ft 438 kts 147°
2026-05-06 21:17 47.60970 -94.90389 38942 ft 438 kts 147°
2026-05-06 21:18 47.55904 -94.85323 38943 ft 438 kts 147°
2026-05-06 21:18 47.50868 -94.80300 38943 ft 438 kts 148°
2026-05-06 21:19 47.45797 -94.75254 38945 ft 438 kts 148°
2026-05-06 21:19 47.40732 -94.70225 38944 ft 438 kts 148°
2026-05-06 21:20 47.35660 -94.65201 38942 ft 438 kts 148°
2026-05-06 21:20 47.30613 -94.60214 38946 ft 438 kts 148°
2026-05-06 21:21 47.25537 -94.55210 38942 ft 438 kts 148°
2026-05-06 21:21 47.20466 -94.50222 38945 ft 438 kts 148°
2026-05-06 21:22 47.15393 -94.45244 38943 ft 438 kts 148°
2026-05-06 21:22 47.10309 -94.40267 38944 ft 438 kts 148°
2026-05-06 21:23 47.05251 -94.35327 38943 ft 438 kts 148°
2026-05-06 21:23 47.00165 -94.30370 38943 ft 438 kts 148°
2026-05-06 21:24 46.95107 -94.25454 38943 ft 438 kts 148°
2026-05-06 21:24 46.90014 -94.20514 38944 ft 438 kts 148°
2026-05-06 21:25 46.84929 -94.15594 38943 ft 438 kts 148°
2026-05-06 21:25 46.79832 -94.10673 38942 ft 438 kts 148°
2026-05-06 21:26 46.74775 -94.05801 38943 ft 438 kts 148°
2026-05-06 21:26 46.69672 -94.00897 38941 ft 438 kts 148°
2026-05-06 21:27 46.64598 -93.96032 38943 ft 438 kts 148°
2026-05-06 21:27 46.59496 -93.91151 38943 ft 438 kts 148°
2026-05-06 21:28 46.54376 -93.86265 38943 ft 438 kts 148°
2026-05-06 21:28 46.49294 -93.81425 38945 ft 438 kts 148°
2026-05-06 21:29 46.44189 -93.76575 38943 ft 438 kts 148°
2026-05-06 21:29 46.39116 -93.71766 38943 ft 438 kts 148°
2026-05-06 21:30 46.34007 -93.66934 38944 ft 438 kts 148°
2026-05-06 21:30 46.28894 -93.62109 38946 ft 438 kts 148°
2026-05-06 21:31 46.23779 -93.57292 38943 ft 438 kts 148°
2026-05-06 21:31 46.18689 -93.52512 38943 ft 438 kts 148°
2026-05-06 21:32 46.14433 -93.48522 38944 ft 438 kts 148°
2026-05-06 21:32 46.06751 -93.41338 38943 ft 438 kts 148°
2026-05-06 21:33 46.01653 -93.36586 38943 ft 438 kts 148°
2026-05-06 21:33 45.96527 -93.31817 38941 ft 438 kts 148°
2026-05-06 21:34 45.91397 -93.27054 38946 ft 438 kts 149°
2026-05-06 21:34 45.86296 -93.22330 38943 ft 438 kts 149°
2026-05-06 21:35 45.81161 -93.17585 38942 ft 438 kts 149°
2026-05-06 21:35 45.76056 -93.12877 38945 ft 438 kts 149°
2026-05-06 21:36 45.70920 -93.08152 38944 ft 438 kts 149°
2026-05-06 21:36 45.65782 -93.03436 38943 ft 438 kts 149°
2026-05-06 21:37 45.60642 -92.98727 38944 ft 438 kts 149°
2026-05-06 21:37 45.55533 -92.94058 38946 ft 438 kts 149°
2026-05-06 21:38 45.50385 -92.89363 38944 ft 438 kts 149°
2026-05-06 21:38 45.45243 -92.84685 38942 ft 438 kts 149°
2026-05-06 21:39 45.40133 -92.80044 38943 ft 438 kts 149°
2026-05-06 21:39 45.34973 -92.75370 38945 ft 438 kts 149°
2026-05-06 21:40 45.29829 -92.70720 38942 ft 438 kts 149°
2026-05-06 21:40 45.24711 -92.66103 38943 ft 438 kts 149°
2026-05-06 21:41 45.19547 -92.61455 38944 ft 438 kts 149°
2026-05-06 21:41 45.14427 -92.56857 38944 ft 438 kts 149°
2026-05-06 21:42 45.09263 -92.52229 38944 ft 438 kts 149°
2026-05-06 21:42 45.04132 -92.47641 38944 ft 438 kts 149°
2026-05-06 21:43 44.98968 -92.43033 38945 ft 438 kts 149°
2026-05-06 21:43 44.93805 -92.38435 38944 ft 438 kts 149°
2026-05-06 21:44 44.88668 -92.33872 38945 ft 438 kts 149°
2026-05-06 21:44 44.83509 -92.29298 38946 ft 438 kts 149°
2026-05-06 21:45 44.78338 -92.24723 38942 ft 438 kts 149°
2026-05-06 21:45 44.73195 -92.20183 38944 ft 438 kts 149°
2026-05-06 21:46 44.68025 -92.15628 38944 ft 438 kts 149°
2026-05-06 21:46 44.62862 -92.11090 38944 ft 438 kts 149°
2026-05-06 21:47 44.57683 -92.06547 38942 ft 438 kts 149°
2026-05-06 21:47 44.52509 -92.02019 38943 ft 438 kts 149°
2026-05-06 21:48 44.47362 -91.97523 38945 ft 438 kts 149°
2026-05-06 21:48 44.42191 -91.93015 38942 ft 438 kts 149°
2026-05-06 21:49 44.37012 -91.88509 38947 ft 438 kts 149°
2026-05-06 21:49 44.31822 -91.84003 38943 ft 438 kts 149°
2026-05-06 21:50 44.26672 -91.79539 38948 ft 438 kts 150°
2026-05-06 21:50 44.21476 -91.75046 38943 ft 438 kts 150°
2026-05-06 21:51 44.16291 -91.70571 38944 ft 438 kts 150°
2026-05-06 21:51 44.11133 -91.66129 38946 ft 438 kts 150°
2026-05-06 21:52 44.05945 -91.61671 38943 ft 438 kts 150°
2026-05-06 21:52 44.00755 -91.57219 38945 ft 438 kts 150°
2026-05-06 21:53 43.95594 -91.52803 38944 ft 438 kts 150°
2026-05-06 21:53 43.90390 -91.48369 38948 ft 438 kts 152°
2026-05-06 21:54 43.85033 -91.44331 38950 ft 437 kts 153°
2026-05-06 21:54 43.79732 -91.40281 38947 ft 437 kts 152°
2026-05-06 21:55 43.74398 -91.36198 38941 ft 437 kts 152°
2026-05-06 21:55 43.69057 -91.32116 38944 ft 437 kts 152°
2026-05-06 21:56 43.63764 -91.28079 38943 ft 437 kts 153°
2026-05-06 21:56 43.58427 -91.24017 38945 ft 437 kts 153°
2026-05-06 21:57 43.53092 -91.19964 38945 ft 437 kts 153°
2026-05-06 21:57 43.47756 -91.15919 38943 ft 437 kts 153°
2026-05-06 21:58 43.42453 -91.11907 38943 ft 437 kts 153°
2026-05-06 21:58 43.37112 -91.07875 38943 ft 437 kts 153°
2026-05-06 21:59 43.31787 -91.03862 38946 ft 437 kts 153°
2026-05-06 21:59 43.26436 -90.99838 38942 ft 437 kts 153°
2026-05-06 22:00 43.21142 -90.95865 38946 ft 437 kts 153°
2026-05-06 22:00 43.15823 -90.91882 38942 ft 437 kts 153°
2026-05-06 22:01 43.10472 -90.87882 38946 ft 437 kts 153°
2026-05-06 22:01 43.05127 -90.83895 38943 ft 437 kts 153°
2026-05-06 22:02 42.99807 -90.79934 38943 ft 437 kts 153°
2026-05-06 22:02 42.94455 -90.75958 38943 ft 437 kts 153°
2026-05-06 22:03 42.89099 -90.71986 38942 ft 437 kts 153°
2026-05-06 22:03 42.83776 -90.68047 38945 ft 437 kts 153°
2026-05-06 22:04 42.78424 -90.64094 38942 ft 437 kts 153°
2026-05-06 22:04 42.73092 -90.60164 38942 ft 437 kts 153°
2026-05-06 22:05 42.67723 -90.56215 38945 ft 437 kts 153°
2026-05-06 22:05 42.62364 -90.52280 38945 ft 437 kts 153°
2026-05-06 22:06 42.57041 -90.48379 38943 ft 437 kts 153°
2026-05-06 22:06 42.51660 -90.44445 38943 ft 437 kts 153°
2026-05-06 22:07 42.46331 -90.40554 38944 ft 437 kts 153°
2026-05-06 22:07 42.40973 -90.36651 38944 ft 437 kts 153°
2026-05-06 22:08 42.35600 -90.32746 38945 ft 437 kts 153°
2026-05-06 22:08 42.30265 -90.28874 38943 ft 437 kts 153°
2026-05-06 22:09 42.24901 -90.24989 38946 ft 437 kts 153°